Cloud_Cover
0 5 5 0 0 0 0 3 5 0 1 4 16 5 5 4 2 5 5 3 5 5 3 4 5 5 5 5 8 10 5 7 34 14 4 0 0 0 0 0 0 0 0 0 0
3 2 0 0 0 0 5 5 2 2 5 0 5 5 5 5 5 10 57 28 5 5 5 4 2 5 5 5 59 35 64 5 6 5 5 0 0 0 0 0 0 0 0 0 0
11 0 0 0 0 6 5 5 6 8 5 5 5 5 14 5 8 11 78 100 96 66 22 9 5 5 19 63 65 40 6 33 68 5 5 0 0 0 0 0 0 0 0 0 0
0 0 0 0 5 8 7 14 16 63 19 6 4 5 16 7 44 70 22 100 100 86 89 90 21 5 4 5 20 17 15 36 21 41 16 5 4 0 0 0 0 0 0 0 0
0 0 0 5 5 46 15 52 27 91 100 43 36 5 5 55 19 31 97 100 100 100 100 79 64 5 56 16 54 13 5 5 5 8 36 0 0 0 0 0 0 0 0 0 5
0 5 2 5 19 56 5 13 84 87 100 29 6 5 4 67 62 5 43 100 100 100 100 99 67 76 14 5 30 75 94 6 5 57 17 22 0 0 0 0 0 0 0 5 4
0 5 5 5 5 30 33 98 100 100 84 36 25 5 5 100 100 38 5 7 94 100 100 58 33 10 5 50 100 100 100 40 30 18 34 100 3 0 0 0 0 2 5 5 5
0 3 5 5 5 5 20 99 89 100 100 38 5 26 98 100 100 93 11 5 5 38 100 34 5 11 47 82 100 100 100 80 25 70 48 21 80 0 0 0 0 0 0 5 5
6 13 22 8 6 5 5 72 75 62 84 76 72 44 99 100 98 9 6 5 5 5 100 100 93 100 100 100 100 100 100 26 23 50 86 26 98 7 0 0 0 0 5 4 0
21 28 6 98 100 100 85 59 30 5 60 46 100 90 98 100 71 5 2 4 5 5 20 13 99 100 100 100 100 100 100 81 5 7 24 50 58 5 5 18 0 5 5 2 4
5 5 15 98 100 5 15 40 20 52 29 5 7 93 99 98 23 5 5 5 5 5 22 100 71 65 97 100 100 100 100 98 5 74 100 100 68 45 73 52 6 5 5 24 5
100 100 59 65 100 100 100 100 98 42 99 92 99 100 93 52 28 62 72 39 77 83 87 79 6 28 98 86 87 36 38 64 100 13 37 100 100 100 100 100 83 9 5 5 5
5 7 51 100 100 81 98 100 92 76 100 100 100 99 100 96 86 100 98 81 94 44 31 76 14 50 89 10 73 62 40 29 68 56 66 100 100 100 100 100 100 77 93 5 0
100 87 29 10 8 6 5 64 100 100 74 100 100 90 89 99 16 100 8 10 9 85 100 100 100 100 100 100 96 22 5 7 68 29 20 82 100 86 5 5 95 14 5 1 5
5 14 32 5 5 5 56 100 100 95 30 99 74 43 85 100 34 83 75 100 100 76 36 80 100 100 100 100 95 10 5 14 40 97 100 38 88 100 63 2 5 1 0 0 0
5 5 5 5 6 85 99 100 99 69 99 16 5 54 100 100 90 84 100 100 100 83 10 41 93 99 95 66 7 44 76 64 6 71 95 92 8 29 4 0 0 60 0 0 0
28 75 10 84 96 68 84 44 83 100 100 93 22 7 88 100 100 100 86 100 81 5 35 25 46 24 50 28 42 98 6 5 4 6 5 5 0 5 0 0 2 5 0 7 23
100 100 17 24 56 5 5 100 100 100 100 88 36 99 66 27 89 57 7 93 88 5 5 5 6 39 100 91 58 6 7 5 4 2 5 50 2 0 1 0 0 4 5 87 5
97 37 50 62 5 5 56 100 100 100 100 99 90 98 100 100 100 22 10 99 50 5 7 5 5 5 67 36 16 5 5 32 31 5 0 5 2 0 0 5 0 5 19 26 8
95 64 25 100 43 96 100 100 100 100 100 70 58 8 20 15 85 6 68 92 28 5 58 42 43 5 26 36 5 9 49 90 95 74 20 3 4 90 34 5 5 39 90 38 53
100 71 7 96 8 37 100 100 100 95 100 100 100 100 99 100 64 40 41 6 29 14 10 80 87 9 5 34 24 14 94 100 100 80 92 29 3 97 100 87 67 100 42 98 14
100 89 60 29 94 100 100 100 100 100 100 100 100 100 100 98 17 12 70 36 70 5 40 92 94 38 5 16 5 54 54 13 86 100 60 97 38 100 100 37 100 100 100 100 93
100 100 88 100 97 100 100 100 78 98 92 97 100 100 100 100 87 26 58 93 6 42 100 74 65 40 18 47 22 8 72 100 96 93 36 100 98 100 98 66 100 100 100 100 92
100 60 67 100 100 100 100 100 100 100 100 100 100 84 100 100 100 13 100 54 90 100 98 100 69 8 60 97 100 73 64 69 100 92 100 81 60 100 100 100 100 100 100 86 33
100 100 85 29 100 93 100 100 100 100 100 100 100 100 100 45 93 100 100 100 90 100 100 100 94 84 5 7 94 82 91 100 100 100 96 98 100 100 95 100 98 100 100 66 5
100 100 100 100 100 100 100 100 100 100 100 49 79 100 100 48 100 100 100 100 100 100 100 100 98 98 25 79 100 32 85 100 100 100 100 100 100 100 100 100 100 100 98 18 96
100 100 100 100 100 100 100 100 100 100 100 100 100 100 97 100 100 100 100 100 100 100 100 100 100 100 96 100 100 41 93 100 100 97 100 100 100 100 100 100 100 94 69 100 48